Lübeck Blankensee Airport

Jump to: basic info | weather | frequencies | runways | comments

Related pages: nearby airports | nearby navaids | notams | map

Basic information (top)

Codes: LBC EDHL
Location: lon 53.805401, lat 10.719200, elev 53 ft / 16 m msl
Status: medium_airport
Scheduled airline service: yes
Links: Wikipedia Mobile

Weather (top)

Current conditions (rec'd 2014/12/20 15:20Z):

EDHL 201520Z 27011KT 240V300 9999 SCT032 BKN048 05/03 Q1005 RMK ATIS ZUL

Airport forecast for Hamburg Airport 28nm (52km) WSW (rec'd 2014/12/20 12:30Z):

TAF EDDH 201100Z 2012/2118 28015G25KT 9999 BKN025 
      TEMPO 2012/2020 29020G35KT 4000 SHRA BKN012CB PROB30 
      TEMPO 2012/2018 30025G45KT 2000 TSRAGS BKN008CB 
      BECMG 2100/2103 25012KT 
      TEMPO 2114/2118 25015G30KT 4000 RA BKN012

Frequencies (top)

Verify before use: may be inaccurate or out of date.

AFIS: 125.1 MHz (BREMEN INFO)
ATIS: 119.925 MHz (ATIS)
GND: 121.775 MHz (GND)
INFO: 128.7 MHz (INFO)
RDR: 124.225 MHz (BREMEN RADAR)
TWR: 128.7 MHz (TWR)

Runways (top)

07/25: 6,896 x 197 ft (2,102 x 60 m) — paved — lighted — threshold 07 displaced 984 ft (300 m)

Latest comments (top)

No comments yet for Lübeck Blankensee Airport

More... (top)

See also NOTAMs and nearby airports and navaids, or visit the Lübeck Blankensee Airport page at the main OurAirports website..